AirNav   TITAN Aviation Fuels
 
 804 users online  

03ND Olafson Brothers Airport
Edinburg, North Dakota, USA

GOING TO EDINBURG?


FAA INFORMATION EFFECTIVE 01 DECEMBER 2022

Location

FAA Identifier: 03ND
Lat/Long: 48-37-34.9780N 097-49-44.3400W
48-37.582967N 097-49.739000W
48.6263828,-97.8289833
(estimated)
Elevation: 1045 ft. / 319 m (estimated)
Variation: 07E (1985)
From city: 9 miles NE of EDINBURG, ND
(ARPT LOCATED 9 MILES N AND 1-1/2 MILES E FROM EDINBURG.)
Time zone: UTC -6 (UTC -5 during Daylight Saving Time)
Zip code: 58227

Airport Operations

Airport use: Private use. Permission required prior to landing
Activation date: 10/1980
Control tower: no
ARTCC: MINNEAPOLIS CENTER
FSS: GRAND FORKS FLIGHT SERVICE STATION
Attendance: UNATNDD
Wind indicator: yes
Segmented circle: no

Airport Communications

WX AWOS-3 at 2C8 (12 nm NE): 118.275 (701-265-8050)
WX AWOS-3PT at 96D (19 nm N): 118.175 (701-549-3402)

Airport Services

Runway Information

Runway 17/35

Dimensions: 2600 x 50 ft. / 792 x 15 m
Surface: turf
RUNWAY 17  RUNWAY 35
Traffic pattern: leftleft
Obstructions: road, 40 ft. from runway25 ft. trees, 400 ft. from runway

Airport Ownership and Management from official FAA records

Ownership: Privately-owned
Owner: OLAFSON BROTHERS
13043 84TH ST. N.E.
EDINBURG, ND 58227
Phone (701) 265-2356
Manager: CURTIS OLAFSON
13041 84TH ST. N.E.
EDINBURG, ND 58227
Phone (701) 265-2356

Additional Remarks

FOR CD CTC MINNEAPOLIS ARTCC AT 651-463-5588.

Instrument Procedures

There are no published instrument procedures at 03ND.

Some nearby airports with instrument procedures:

2C8 - Cavalier Municipal Airport (12 nm NE)
96D - Walhalla Municipal Airport (19 nm N)
KGAF - Hutson Field Airport (23 nm SE)
D55 - Robertson Field Airport (24 nm W)
KPMB - Pembina Municipal Airport (30 nm NE)
 
Loc | Ops | Rwys | IFR | FBO | Links
Com | Nav | Svcs | Stats | Notes

Bismarck Aero Center
AirBoss

 
Area around 03ND (Olafson Brothers Airport)
 
Road maps at: MapQuest Bing Google
 
Aerial photo
No photo
 
Sectional chart

 
Airport distance calculator
Flying to Olafson Brothers Airport? Find the distance to fly.

From to 03ND

Sunrise and sunset
Times for 03-Dec-2022
 Local
(UTC-6)
 Zulu
(UTC)
Morning civil twilight07:3013:30
Sunrise08:0614:06
Sunset16:3622:36
Evening civil twilight17:1323:13

Current date and time
Zulu (UTC)  04-Dec-2022 03:11:47
Local (UTC-6)  03-Dec-2022 21:11:47
 
METAR
K2C8 
12nm NE 
040255Z AUTO 16005KT 10SM FEW120 M15/M17 A3005 RMK AO2
K96D 
19nm N 
040255Z AUTO 24010G15KT 10SM BKN110 M12/M18 A3003 RMK AO2
KGAF 
23nm SE 
040255Z AUTO 17008KT 10SM CLR M16/M19 A3009 RMK AO2
KD55 
24nm W 
040255Z AUTO 24015KT 10SM CLR M17/M17 A3000 RMK AO2
TAF
KGFK 
48nm SE 
031722Z 0318/0418 23013KT P6SM BKN070 FM032200 20009KT P6SM SCT100 FM040900 27010KT P6SM SCT180 FM041300 23010KT P6SM FEW250 WS020/29035KT
NOTAMs
Click for the latest NOTAMs
NOTAMs are issued by the DoD/FAA and will open in a separate window not controlled by AirNav.

 

 
 

Would you like to see your business listed on this page?

 If your business provides an interesting product or service to pilots, flight crews, aircraft, or users of the Olafson Brothers Airport, you should consider listing it here.  To start the listing process, click on the button below
 
Add a business
 

Other Pages about Olafson Brothers Airport

Update a link
 
Copyright © AirNav, LLC. All rights reserved. Privacy Policy  Contact